www.pogodaiklimat.ru

Погода и климат >> Архив погоды >> Великобритания >> Бала


ПОГОДА в Бала

  • Прогноз погоды в Бала
  • Монитор погоды в Бала

АРХИВ ПОГОДЫ в Бала

Время (UTC), дата Ветер
(напр.,м/с)
 
Видим.   Явления Облачность Т
(С)
Тd
(С)
f
(%)
Тe
(С)
Тes
(С)
Комфортность P
(гПа)
Po
(гПа)
Тmin
(С)
Tmax
(С)
R
(мм)
R24
(мм)
S
(см)
04 8.09 СЗ 1 н/о н/о +3.9 +3.9 100 +2 +2 1027.7 1007.1
05 8.09 С 1 н/о н/о +3.4 +3.4 100 +2 +2 1027.3 1006.7
06 8.09 С 1 н/о н/о +4.0 +4.0 100 +4 +4 1027.3 1006.8 +3.3 0.2
07 8.09 СЗ 1 н/о н/о +4.3 +4.3 100 +4 +4 1027.0 1006.5
08 8.09 ЮЗ 1 н/о н/о +5.3 +5.3 100 +5 +5 1026.8 1006.4
09 8.09 З 1 н/о н/о +7.8 +7.8 100 +8 +8 1026.3 1006.0
10 8.09 ЮВ 1 н/о н/о +11.7 +10.1 90 +12 +12 1025.2 1005.3
11 8.09 ЮВ 1 н/о н/о +15.3 +7.8 61 +16 +16 1024.2 1004.5
12 8.09 З 1 н/о н/о +15.0 +7.8 62 +16 +16 1023.5 1003.8
13 8.09 З 2 н/о н/о +17.2 +8.9 58 +18 +18 1022.9 1003.3
14 8.09 ЮЗ 2 н/о н/о +16.4 +8.0 58 +17 +17 1022.1 1002.5
15 8.09 З 2 н/о н/о +16.8 +8.1 56 +17 +17 1021.6 1002.1
16 8.09 З 3 н/о н/о +15.2 +9.7 70 +15 +15 1021.2 1001.6
17 8.09 З 3 н/о н/о +15.3 +9.5 68 +15 +15 1020.6 1001.0
18 8.09 З 3 н/о н/о +14.3 +9.0 70 +13 +13 1020.3 1000.6 +17.4
19 8.09 ЮЗ 1 н/о н/о +11.3 +8.4 82 +11 +11 1019.9 1000.0
20 8.09 штиль 0 н/о н/о +8.7 +7.5 92 +8 +8 1019.9 999.8
21 8.09 штиль 0 н/о н/о +8.2 +7.7 97 +7 +7 1019.4 999.4
22 8.09 штиль 0 н/о н/о +8.1 +7.8 98 +7 +7 1018.7 998.7
23 8.09 СВ 1 н/о н/о +8.4 +8.2 99 +8 +8 1017.5 997.5
00 9.09 С 1 н/о н/о +8.8 +8.5 98 +9 +9 1016.5 996.5
01 9.09 штиль 0 н/о н/о +9.2 +8.7 97 +8 +8 1015.7 995.7
02 9.09 штиль 0 н/о н/о +9.6 +9.1 97 +9 +9 1014.6 994.7
03 9.09 В 1 н/о н/о +9.9 +9.7 99 +10 +10 1013.4 993.5
04 9.09 СВ 1 н/о н/о +10.2 +10.1 99 +10 +10 1012.0 992.2
05 9.09 СВ 1 н/о н/о +10.5 +10.4 99 +10 +10 1010.9 991.2
06 9.09 ЮВ 1 н/о н/о +11.3 +10.9 97 +11 +11 1010.1 990.4 +8.0 6
07 9.09 С 1 н/о н/о +11.2 +10.9 98 +11 +11 1009.8 990.1
08 9.09 ЮВ 1 н/о н/о +11.5 +11.2 98 +11 +11 1009.5 989.8
09 9.09 СВ 1 н/о н/о +11.9 +11.6 98 +12 +12 1009.1 989.5
10 9.09 С 1 н/о н/о +12.9 +12.1 95 +14 +14 1008.9 989.4
11 9.09 С 1 н/о н/о +14.4 +12.7 90 +15 +15 1008.8 989.3
12 9.09 З 3 н/о н/о +14.7 +13.1 90 +14 +14 1008.6 989.1
13 9.09 0 н/о н/о +14.3 +11.2 82 1009.0 989.6
14 9.09 С 1 н/о н/о +14.8 +12.1 84 +15 +15 1009.2 989.7
15 9.09 СЗ 2 н/о н/о +15.2 +11.6 79 +15 +15 1009.4 990.0
16 9.09 С 2 н/о н/о +14.7 +11.7 82 +14 +14 1010.0 990.6
17 9.09 СВ 2 н/о н/о +14.0 +11.0 82 +14 +14 1011.0 991.5
18 9.09 СЗ 2 н/о н/о +13.6 +11.2 85 +13 +13 1012.0 992.4 +16.1
19 9.09 З 1 н/о н/о +12.8 +11.8 94 +13 +13 1012.8 993.2
20 9.09 З 1 н/о н/о +12.8 +11.6 92 +14 +14 1013.8 994.2
21 9.09 ЮЗ 1 н/о н/о +12.6 +11.8 95 +12 +12 1014.5 994.9
22 9.09 ЮЗ 1 н/о н/о +12.6 +11.9 95 +13 +13 1015.3 995.6
23 9.09 СЗ 1 н/о н/о +12.7 +11.7 94 +13 +13 1015.6 996.0
00 10.09 С 1 н/о н/о +12.5 +11.6 94 +12 +12 1016.1 996.4 0.4
01 10.09 СЗ 1 н/о н/о +12.3 +11.1 92 +12 +12 1016.6 996.9
02 10.09 З 1 н/о н/о +12.2 +10.7 91 +12 +12 1017.0 997.3
03 10.09 ЮЗ 1 н/о н/о +11.1 +10.0 93 +11 +11 1017.6 997.8
04 10.09 З 1 н/о н/о +10.9 +10.0 94 +10 +10 1018.0 998.1
05 10.09 З 2 н/о н/о +11.3 +10.1 92 +10 +10 1018.5 998.7
06 10.09 ЮЗ 2 н/о н/о +11.3 +10.3 94 +10 +10 1018.9 999.1 +10.4 0.4
07 10.09 ЮЗ 3 н/о н/о +11.6 +10.4 92 +10 +10 1019.6 999.8
08 10.09 ЮЗ 2 н/о н/о +12.2 +10.7 91 +11 +11 1020.4 1000.6
09 10.09 З 3 н/о н/о +13.5 +9.4 76 +13 +13 1020.7 1001.0
10 10.09 З 1 н/о н/о +13.9 +8.5 70 +14 +14 1020.4 1000.7
11 10.09 З 2 н/о н/о +14.3 +8.6 69 +14 +14 1020.4 1000.7
12 10.09 З 3 н/о н/о +15.6 +7.3 58 +15 +15 1020.3 1000.7
13 10.09 З 4 н/о н/о +14.8 +8.2 65 +14 +14 1020.4 1000.7
14 10.09 З 4 н/о н/о +15.1 +8.1 63 +14 +14 1020.6 1001.0
15 10.09 ЮЗ 5 н/о н/о +15.2 +8.5 64 +14 +14 1020.1 1000.5
16 10.09 ЮЗ 5 н/о н/о +13.8 +8.5 70 +12 +12 1020.1 1000.4
17 10.09 ЮЗ 5 н/о н/о +12.9 +8.8 76 +11 +11 1020.0 1000.3
18 10.09 ЮЗ 5 н/о н/о +12.7 +8.4 75 +11 +11 1019.8 1000.0 +15.9
19 10.09 ЮЗ 6 н/о н/о +12.5 +8.4 76 +10 +10 1019.1 999.3
20 10.09 ЮЗ 4 н/о н/о +12.4 +8.7 78 +10 +10 1019.2 999.5
21 10.09 ЮЗ 6 н/о н/о +12.6 +10.3 86 +10 +10 1018.8 999.1
22 10.09 ЮЗ 6 н/о н/о +12.4 +11.0 91 +10 +10 1018.4 998.6
23 10.09 ЮЗ 6 н/о н/о +12.7 +12.0 96 +10 +10 1017.8 998.1
00 11.09 З 7 н/о н/о +13.0 +12.4 96 +10 +10 1016.5 996.8 0.2
01 11.09 З 6 н/о н/о +13.6 +13.1 97 +11 +11 1015.9 996.3
02 11.09 ЮЗ 7 н/о н/о +15.0 +14.3 96 +13 +13 1015.2 995.6
03 11.09 ЮЗ 7 н/о н/о +15.3 +14.6 96 +13 +13 1014.7 995.2
04 11.09 ЮЗ 6 н/о н/о +15.6 +15.0 96 +14 +14 1014.1 994.6
05 11.09 ЮЗ 8-13
{16}
н/о н/о +15.6 +15.0 96 +14 +14 1013.7 994.2
06 11.09 ЮЗ 7 н/о н/о +15.4 +15.0 97 +14 +14 1013.8 994.3 +12.4 4
07 11.09 ЮЗ 5 н/о н/о +15.5 +15.2 98 +14 +14 1014.2 994.7
08 11.09 З 7 н/о н/о +15.9 +15.3 96 +14 +14 1014.5 995.0
09 11.09 З 6 н/о н/о +16.0 +15.3 96 +15 +15 1015.1 995.7
10 11.09 З 5 н/о н/о +16.5 +14.2 86 +16 +16 1016.2 996.8
11 11.09 З 6 н/о н/о +16.6 +12.7 78 +16 +16 1016.6 997.1
12 11.09 З 5 н/о н/о +17.1 +12.0 72 +17 +17 1017.4 998.0 4
13 11.09 З 4 н/о н/о +16.6 +9.8 64 +16 +16 1018.5 999.0
14 11.09 З 4 н/о н/о +16.5 +10.2 66 +16 +16 1018.8 999.3
15 11.09 ЮЗ 6 н/о н/о +16.5 +11.3 71 +15 +15 1019.0 999.5
16 11.09 З 4 н/о н/о +17.4 +11.9 70 +17 +17 1019.3 999.9
17 11.09 З 3 н/о н/о +17.2 +11.7 70 +17 +17 1019.9 1000.4
18 11.09 ЮЗ 4 н/о н/о +15.4 +11.9 80 +15 +15 1020.6 1001.0 +17.7 4
19 11.09 З 2 н/о н/о +13.8 +11.7 87 +13 +13 1021.2 1001.5
20 11.09 З 1 н/о н/о +12.6 +11.8 95 +13 +13 1022.0 1002.2
21 11.09 З 1 н/о н/о +12.0 +11.3 95 +13 +13 1022.2 1002.4
22 11.09 В 1 н/о н/о +11.0 +10.6 97 +11 +11 1022.6 1002.6
23 11.09 СЗ 1 н/о н/о +10.9 +10.7 99 +11 +11 1022.6 1002.6
00 12.09 СВ 1 н/о н/о +10.8 +10.6 99 +11 +11 1022.9 1002.9 0.2
01 12.09 ЮЗ 2 н/о н/о +11.1 +11.1 100 +10 +10 1022.9 1003.0
02 12.09 З 2 н/о н/о +13.0 +11.6 91 +12 +12 1023.0 1003.2
03 12.09 З 3 н/о н/о +13.5 +12.4 93 +12 +12 1022.7 1003.0
04 12.09 ЮЗ 5 н/о н/о +14.0 +12.9 93 +12 +12 1022.6 1002.8
05 12.09 З 6 н/о н/о +14.8 +13.3 91 +13 +13 1022.7 1003.0
06 12.09 ЮЗ 5 н/о н/о +14.3 +13.6 96 +13 +13 1022.9 1003.2 +10.4
07 12.09 З 5 н/о н/о +15.0 +14.6 97 +13 +13 1022.8 1003.1
08 12.09 ЮЗ 8-13
{13}
н/о н/о +15.8 +15.1 96 +14 +14 1023.0 1003.4
09 12.09 ЮЗ 6 н/о н/о +16.0 +15.0 94 +15 +15 1023.6 1004.0
10 12.09 ЮЗ 7
{13}
н/о н/о +15.9 +15.4 97 +14 +14 1023.8 1004.2
11 12.09 ЮЗ 7 н/о н/о +16.3 +15.6 96 +15 +15 1024.2 1004.6
12 12.09 ЮЗ 7
{13}
н/о н/о +16.5 +14.9 90 +15 +15 1024.6 1005.0 0.6
13 12.09 ЮЗ 5
{13}
н/о н/о +16.4 +13.8 85 +15 +15 1024.2 1004.6
14 12.09 ЮЗ 5 н/о н/о +15.8 +14.9 94 +15 +15 1024.2 1004.6
15 12.09 ЮЗ 4 н/о н/о +16.1 +15.5 96 +15 +15 1024.6 1004.9
16 12.09 ЮЗ 6
{13}
н/о н/о +16.1 +15.6 97 +15 +15 1024.6 1004.9
17 12.09 ЮЗ 5 н/о н/о +16.2 +15.6 96 +15 +15 1024.9 1005.2
18 12.09 ЮЗ 4 н/о н/о +16.0 +15.6 97 +15 +15 1025.5 1005.8 +16.8 3
19 12.09 СЗ 2 н/о н/о +14.5 +13.2 92 +14 +14 1027.2 1007.4
20 12.09 СЗ 3 н/о н/о +13.4 +11.3 87 +12 +12 1028.7 1008.8
21 12.09 СВ 1 н/о н/о +12.7 +11.1 90 +13 +13 1029.8 1009.8
22 12.09 ЮЗ 1 н/о н/о +11.8 +10.8 94 +12 +12 1030.7 1010.7
23 12.09 СВ 1 н/о н/о +10.2 +9.9 98 +11 +11 1031.4 1011.2
00 13.09 СВ 1 н/о н/о +9.2 +9.0 99 +9 +9 1031.9 1011.6 0.2
01 13.09 С 1 н/о н/о +8.4 +8.3 99 +8 +8 1032.8 1012.5
02 13.09 В 1 н/о н/о +8.7 +8.6 99 +9 +9 1033.3 1013.0
03 13.09 ЮЗ 1 н/о н/о +7.9 +7.8 99 +8 +8 1033.8 1013.4
04 13.09 СВ 1 н/о н/о +6.4 +6.3 99 +6 +6 1034.3 1013.8
05 13.09 В 1 н/о н/о +7.0 +7.0 100 +6 +6 1034.7 1014.2
06 13.09 СЗ 1 н/о н/о +6.9 +6.9 100 +7 +7 1035.6 1015.1 +6.3 0.2
07 13.09 В 1 н/о н/о +7.5 +7.5 100 +7 +7 1036.3 1015.8
08 13.09 Ю 1 н/о н/о +8.0 +8.0 100 +8 +8 1037.1 1016.6
09 13.09 В 1 н/о н/о +10.3 +10.3 100 +11 +11 1037.2 1016.9
10 13.09 З 1 н/о н/о +14.2 +10.5 78 +15 +15 1037.0 1017.0
11 13.09 СЗ 2 н/о н/о +14.8 +8.3 65 +15 +15 1037.0 1017.0
12 13.09 СЗ 1 н/о н/о +16.6 +8.2 58 +17 +17 1036.6 1016.7
13 13.09 С 2 н/о н/о +16.8 +7.5 54 +17 +17 1036.6 1016.8
14 13.09 С 2 н/о н/о +17.7 +8.4 54 +18 +18 1036.4 1016.6
15 13.09 СВ 1 н/о н/о +17.0 +9.1 60 +18 +18 1036.4 1016.6
16 13.09 В 4 н/о н/о +16.5 +9.7 64 +16 +16 1036.1 1016.3
17 13.09 В 3 н/о н/о +15.2 +9.8 70 +15 +15 1036.2 1016.3
18 13.09 В 3 н/о н/о +13.4 +9.1 75 +12 +12 1036.6 1016.6 +18.4
19 13.09 СВ 1 н/о н/о +10.7 +8.8 88 +11 +11 1037.3 1017.1
20 13.09 СВ 1 н/о н/о +8.5 +7.7 95 +8 +8 1037.9 1017.5
21 13.09 В 1 н/о н/о +7.1 +6.5 96 +7 +7 1037.8 1017.3
22 13.09 В 1 н/о н/о +6.3 +6.0 98 +6 +6 1038.0 1017.5
23 13.09 В 1 н/о н/о +5.2 +4.9 98 +5 +5 1037.9 1017.2
00 14.09 З 1 н/о н/о +4.6 +4.3 98 +4 +4 1037.4 1016.7
01 14.09 В 1 н/о н/о +3.9 +3.7 99 +3 +3 1037.5 1016.8
02 14.09 СВ 1 н/о н/о +3.6 +3.5 99 +3 +3 1037.2 1016.4
03 14.09 СВ 1 н/о н/о +4.6 +4.6 100 +4 +4 1036.3 1015.7
04 14.09 С 1 н/о н/о +4.5 +4.5 100 +4 +4 1035.8 1015.1
05 14.09 СВ 1 н/о н/о +4.3 +4.3 100 +4 +4 1035.5 1014.8
06 14.09 СВ 1 н/о н/о +4.4 +4.4 100 +4 +4 1034.8 1014.2 +3.4
07 14.09 СЗ 1 н/о н/о +4.1 +4.1 100 +4 +4 1034.6 1013.9
08 14.09 штиль 0 н/о н/о +5.8 +5.8 100 +5 +5 1034.3 1013.8
09 14.09 ЮЗ 1 н/о н/о +9.3 +9.3 100 +9 +9 1033.5 1013.2
10 14.09 ЮЗ 1 н/о н/о +14.2 +10.4 78 +15 +15 1032.6 1012.7
11 14.09 ЮЗ 6 н/о н/о +17.4 +7.8 53 +17 +17 1032.1 1012.4
12 14.09 ЮЗ 5 н/о н/о +17.6 +8.2 54 +17 +17 1031.3 1011.7 0.2
13 14.09 ЮЗ 5 н/о н/о +17.9 +9.6 58 +18 +18 1030.9 1011.3
14 14.09 ЮЗ 6 н/о н/о +17.5 +9.9 61 +17 +17 1030.1 1010.5
15 14.09 ЮЗ 6 н/о н/о +17.6 +10.2 62 +17 +17 1029.4 1009.8
16 14.09 ЮЗ 6 н/о н/о +17.6 +11.5 67 +17 +17 1028.9 1009.2
17 14.09 ЮЗ 6 н/о н/о +16.5 +11.3 71 +15 +15 1028.5 1008.9
18 14.09 ЮЗ 4 н/о н/о +15.2 +9.6 69 +14 +14 1027.8 1008.1 +18.4 0.2
19 14.09 Ю 1 н/о н/о +13.5 +9.9 79 +14 +14 1028.4 1008.5
20 14.09 Ю 1 н/о н/о +11.9 +9.6 86 +12 +12 1028.3 1008.3
21 14.09 З 1 н/о н/о +10.7 +9.2 90 +10 +10 1028.0 1007.9
22 14.09 ЮЗ 5 н/о н/о +13.2 +11.2 88 +11 +11 1027.2 1007.3
23 14.09 З 3 н/о н/о +13.4 +11.3 87 +12 +12 1026.8 1006.9
00 15.09 З 3 н/о н/о +13.4 +11.5 88 +12 +12 1026.7 1006.8
01 15.09 З 2 н/о н/о +13.2 +11.4 89 +12 +12 1026.3 1006.5
02 15.09 ЮЗ 3 н/о н/о +13.7 +12.4 92 +13 +13 1025.6 1005.8
03 15.09 З 2 н/о н/о +14.2 +12.7 91 +14 +14 1025.0 1005.3

 

Местоположение метеостанции Бала (Великобритания): широта 52.90 долгота -3.57 высота над уровнем моря 163 м.

В архиве по умолчанию представлена погода в Бала за последнюю неделю. Архивные данные за месяц целиком и за предыдущие месяцы, начиная с января 2011 года, Вы можете получить, выбрав интересующий диапазон дат из раскрывающегося списка и нажав кнопку "Ввод!".


*Определитесь, кто Вы:
робот инопланетянин человек

Внимание! Время в таблицах - всемирное. Для получения местного времени необходимо прибавить поправку, которая равна 0 ч.

Смотрите также архив погоды в соседних городах и на ближайших метеорологических станциях:

Погода на Озере Вирнви (Великобритания) (18 км)
Погода в Кейпл Кериг (Великобритания) (33 км)
Погода в Риле (Великобритания) (39 км)
Погода в Гавардене (Великобритания) (50 км)
Погода в Шобери (Великобритания) (61 км)
Погода в Моне (Великобритания) (66 км)
Погода в Троскоеде (Великобритания) (66 км)
Погода в Кросби (Великобритания) (75 км)
Погода в Вэлли (Великобритания) (75 км)
Погода в Абердароне (Великобритания) (79 км)

Пояснения к столбцам:

Ветер - указаны скорость ветра в м/с - средняя за 10 мин, порывы в срок и между сроками (в фигурных скобках) и направление, откуда дует ветер: С - северный, СВ - северо-восточный, В - восточный, ЮВ - юго-восточный, Ю - южный, ЮЗ - юго-западный, З - западный, СЗ - северо-западный.
Видимость - горизонтальная дальность видимости в метрах или километрах. При видимости от 1 до 10 км при отсутствии осадков обычно наблюдается дымка, при ухудшении видимости до 1 км и менее - туман. В сухую погоду видимость может ухудшаться дымом, пылью или мглою.
Явления - указаны атмосферные явления, наблюдавшиеся в срок или в последний час перед сроком; фигурными скобками обозначены явления, наблюдавшиеся между сроками (за 1-3 часа до срока); квадратными скобками обозначены град или гололедные отложения с указанием их диаметра в мм.
Облачность - указаны через наклонную черту общая и нижняя облачность в баллах и высота нижней границы облаков в метрах; квадратными скобками обозначены формы облаков: Ci - перистые, Cs - перисто-слоистые, Cc - перисто-кучевые, Ac - высококучевые, As - высокослоистые, Sc - слоисто-кучевые, Ns - слоисто-дождевые, Cu - кучевые, Cb - кучево-дождевые. Подробнее классификацию облаков см. в Атласе облаков (PDF).
T - Температура воздуха - температура, измеренная на высоте 2 м над землей.
Td - Температура точки росы - температура, при понижении до которой содержащийся в воздухе водяной пар достигнет насыщения.
f - Относительная влажность воздуха - влажноcть воздуха, измеренная на высоте 2 м над землей.
Te - Эффективная температура - температура, которую ощущает одетый по сезону человек в тени. Характеристика душности погоды. При расчете учитывается влияние влажности воздуха и скорости ветра на теплоощущения человека.
Tes - Эффективная температура на солнце - температура, которую ощущает человек, с поправкой на солнечный нагрев. Характеристика знойности погоды. Зависит от высоты солнца над горизонтом, облачности и скорости ветра. Ночью, в пасмурную погоду, а также при ветре 12 м/с и более поправка равна нулю.
P - Атмосферное давление - приведенное к уровню моря атмосферное давление.
Po - Атмосферное давление - измеренное на уровне метеостанции атмосферное давление.
Tmin - Минимальная температура - минимум температуры воздуха на высоте 2 м над землей.
Tmax - Максимальная температура - максимум температуры воздуха на высоте 2 м над землей.
R - Количество осадков - Количество выпавших осадков за период времени, мм. При наведении курсора мыши на число - период времени, за который выпало указанное количество осадков.
R24 - Количество осадков - Количество выпавших осадков за 24 часа, мм.
S - Снежный покров - Высота снежного покрова, см. При наведении курсора мыши на число - состояние снежного покрова и степень покрытия местности в баллах.